Weather at Kenderes Airport

Public forecast

Using degrees Celsius for public forecast. Weather courtesy of forecast.io.

Closest aviation weather report (METAR) to Kenderes Airport

Closest report is Szolnok Air Base, 19.9 nm (36.8 km) WSW. Retrieved 2021/01/28 01:15 UTC (42 minutes ago):

LHSN 280115Z 30006KT CAVOK M03/M05 Q1012 NOSIG RMK BLU

Closest aviation forecast (TAF) to Kenderes Airport

Forecast is more than 12 hours old.

Closest forecast is Szolnok Air Base, 19.9 nm (36.8 km) WSW. Retrieved 2016/06/17 03:24 UTC (5 years ago):

TAF TAF LHSN 170215Z 1703/1715 17009KT CAVOK BECMG 1707/1710 24015G25KT